User: anonymous   Login
Location: Gombori
(14.9797°N, 2.9419°W)
Time: 16:57:30
(UTC+00:00)
Language:

USA 267 - Orbit

View from above orbital plane
View from above orbital plane
View from above satellite
View from above satellite

Ground track
Ground track

The orbit data is extracted from the following two-line orbital elements,

1 41334U 16010A   21295.72898580 0.00000000  00000-0  00000-0 0    02
2 41334 122.9993 335.1808 0006644   8.8088 351.1911 13.41399582    08
Epoch (UTC): 22 October 2021 17:29:44
Eccentricity: 0.0006644
inclination: 122.9993°
perigee height: 1099 km
apogee height: 1109 km
right ascension of ascending node: 335.1808°
argument of perigee: 8.8088°
revolutions per day: 13.41399582
mean anomaly at epoch: 351.1911°
orbit number at epoch: 0

The dashed part of the orbit path shows where the satellite is in the earth's shadow,  

DLR